This is the latest recevied weather packets stored in our database for station/object OE-11061. If no packets are shown the sender has not sent any weather packets the latest 10 day(s).
| Time | Temp. | Humidity | Pressure | Rain* | Wind** | Luminosity | Snow |
|---|---|---|---|---|---|---|---|
| 1787902893 | 23.33° C | 78% | 1009.7 hPa | 0 mm | - | 411 W/m² | - |
| 1787902521 | 22.78° C | 80% | 1009.8 hPa | 0 mm | - | 388 W/m² | - |
| 1787901921 | 21.67° C | 84% | 1010 hPa | 0 mm | - | 351 W/m² | - |
| 1787901093 | 21.67° C | 86% | 1010 hPa | 0 mm | - | 284 W/m² | - |
| 1787900720 | 21.11° C | 86% | 1010.1 hPa | 0 mm | - | 261 W/m² | - |
| 1787900121 | 20.56° C | 86% | 1010.5 hPa | 0 mm | - | 209 W/m² | - |
| 1787899294 | 20.56° C | 85% | 1010.6 hPa | 0 mm | - | 232 W/m² | - |
| 1787898920 | 19.44° C | 87% | 1011 hPa | 0 mm | - | 217 W/m² | - |
| 1787898321 | 18.89° C | 89% | 1011.3 hPa | 0 mm | - | 172 W/m² | - |
| 1787897493 | 18.33° C | 88% | 1011.3 hPa | 0 mm | - | 142 W/m² | - |
| 1787897120 | 18.33° C | 88% | 1011.4 hPa | 0 mm | - | 134 W/m² | - |
| 1787896520 | 17.78° C | 90% | 1011.6 hPa | 0 mm | - | 105 W/m² | - |
| 1787895693 | 17.22° C | 91% | 1011.5 hPa | 0 mm | - | 90 W/m² | - |
| 1787895321 | 16.67° C | 93% | 1011.5 hPa | 0 mm | - | 60 W/m² | - |
| 1787894721 | 16.11° C | 93% | 1011.5 hPa | 0 mm | - | 30 W/m² | - |
| 1787893894 | 16.11° C | 93% | 1011.3 hPa | 0 mm | - | 22 W/m² | - |
| 1787893521 | 16.11° C | 93% | 1011.3 hPa | 0 mm | - | 7 W/m² | - |
| 1787892921 | 15.56° C | 92% | 1011.4 hPa | 0 mm | - | 7 W/m² | - |
| 1787892093 | 16.11° C | 92% | 1011.4 hPa | 0 mm | - | 0 W/m² | - |
| 1787891720 | 16.11° C | 92% | 1011.5 hPa | 0 mm | - | 0 W/m² | - |
| 1787891121 | 16.11° C | 92% | 1011.3 hPa | 0 mm | - | 0 W/m² | - |
| 1787890293 | 16.67° C | 92% | 1011.3 hPa | 0 mm | - | 0 W/m² | - |
| 1787889921 | 16.67° C | 92% | 1011.5 hPa | 0 mm | - | 0 W/m² | - |
| 1787889321 | 16.67° C | 91% | 1011.7 hPa | 0 mm | - | 0 W/m² | - |
| 1787888720 | 16.67° C | 91% | 1011.7 hPa | 0 mm | - | 0 W/m² | - |
* Rain latest hour (hover to see other rain measurements)
** Current wind speed in m/s (hover to see current wind gust speed)